Location: Dampvalley
(47.9094°N, 6.1967°E)
Time: 01:01:46
(UTC+00:00)

SO-50 - Visible Passes

Search period start: 27 November 2022 00:00
Search period end: 07 December 2022 00:00
Orbit: 583 x 697 km, 64.6° (Epoch: 26 November)

Date Brightness Start Highest point End Pass type
(mag) Time Alt. Az. Time Alt. Az. Time Alt. Az.
27 Nov ? 17:48:02 10° WSW 17:48:17 10° WSW 17:48:33 10° WSW visible
28 Nov ? 06:21:47 10° SSE 06:25:02 18° ESE 06:28:19 10° ENE visible
28 Nov ? 16:28:29 10° NW 16:32:50 32° WSW 16:37:04 10° S visible
29 Nov ? 16:53:48 10° WNW 16:56:36 15° WSW 16:59:23 10° SW visible
30 Nov ? 05:31:25 10° SE 05:33:19 12° ESE 05:35:14 10° E visible
01 Dec ? 05:53:02 10° S 05:57:02 26° ESE 06:01:06 10° ENE visible
02 Dec ? 06:16:15 10° SSW 06:20:57 54° ESE 06:25:47 10° NE visible
03 Dec ? 05:02:00 10° SSE 05:05:15 18° ESE 05:08:34 10° ENE visible
04 Dec ? 05:24:37 10° S 05:29:04 38° ESE 05:33:37 10° NE visible
05 Dec ? 04:11:35 10° SE 04:13:32 12° ESE 04:15:29 10° E visible
05 Dec ? 05:48:16 10° SSW 05:53:06 78° SE 05:58:04 10° NE visible
06 Dec ? 04:33:14 10° S 04:37:14 26° ESE 04:41:19 10° ENE visible
06 Dec ? 06:12:35 10° SW 06:17:22 55° NW 06:22:15 10° NNE visible
